FW3877 Weather Reports


time (UTC)temp
F
wind
direction
speed
knots
gust
knots
rain 1hr
in
rain 24hr
in
rain mn
in
humidity
%
barometer
mb
20260905034704 52 250 0.9 1.7 0.01 0.13 0.02 95 1019.1
20260905034204 53 249 1.7 4.3 0.01 0.13 0.02 95 1019.1
20260905033704 53 258 2.6 2.6 0.01 0.13 0.02 95 1019.1
20260905033205 53 247 2.6 6.1 0.01 0.13 0.02 95 1019.1
20260905032704 53 274 2.6 6.1 0.01 0.13 0.02 95 1019.2
20260905032204 53 257 2.6 7.8 0.01 0.13 0.02 95 1019.2
20260905031704 53 258 4.3 7.0 0.00 0.13 0.02 95 1019.3
20260905030704 53 266 2.6 5.2 0.00 0.13 0.02 95 1019.2
20260905030204 53 259 1.7 4.3 0.00 0.13 0.02 95 1019.0
20260905025204 53 246 2.6 4.3 0.00 0.13 0.02 95 1019.1
20260905024703 53 241 2.6 4.3 0.00 0.13 0.02 95 1019.0
20260905024204 53 241 2.6 4.3 0.00 0.13 0.02 95 1019.1
20260905023703 53 239 1.7 2.6 0.00 0.13 0.02 95 1018.9
20260905023204 53 216 1.7 2.6 0.01 0.13 0.02 95 1018.9
20260905022704 53 234 1.7 6.1 0.01 0.13 0.02 95 1018.9
20260905022204 53 272 2.6 7.0 0.01 0.13 0.02 95 1018.8
20260905021704 53 217 1.7 2.6 0.01 0.13 0.02 95 1018.7
20260905021204 53 227 2.6 2.6 0.01 0.13 0.02 95 1018.7
20260905020203 53 246 2.6 5.2 0.02 0.13 0.02 95 1018.7
20260905015704 53 251 2.6 6.1 0.02 0.13 0.02 95 1018.7
20260905015204 53 253 2.6 4.3 0.02 0.13 0.02 95 1018.6
20260905014704 53 252 1.7 5.2 0.02 0.13 0.02 94 1018.6
20260905014204 53 260 2.6 6.1 0.02 0.13 0.02 94 1018.6
20260905013704 53 251 2.6 5.2 0.02 0.13 0.02 94 1018.6
20260905013205 53 248 3.5 7.0 0.01 0.13 0.01 94 1018.5
20260905012705 53 239 2.6 6.1 0.01 0.13 0.01 94 1018.5
20260905012204 53 249 2.6 6.1 0.01 0.13 0.01 94 1018.5
20260905011704 53 256 2.6 6.1 0.01 0.13 0.01 94 1018.3
20260905011204 53 247 4.3 7.8 0.01 0.13 0.01 94 1018.4
20260905010703 53 247 6.1 8.7 0.01 0.13 0.01 94 1018.5
20260905005703 52 241 2.6 6.1 0.00 0.12 0.00 94 1018.3
20260905005203 52 225 1.7 2.6 0.00 0.12 0.00 94 1018.3
20260905004703 52 253 2.6 7.0 0.00 0.12 0.00 94 1018.2
20260905004203 52 250 2.6 4.3 0.00 0.12 0.00 94 1018.1
20260905003703 52 258 2.6 2.6 0.00 0.12 0.00 93 1018.1
20260905003204 52 248 2.6 2.6 0.00 0.12 0.00 93 1018.1
20260905002704 52 252 2.6 5.2 0.00 0.12 0.00 93 1018.1
20260905002204 52 250 1.7 2.6 0.00 0.12 0.00 93 1018.1
20260905001704 52 246 1.7 2.6 0.00 0.12 0.00 93 1018.0
20260905001203 52 246 0.9 2.6 0.00 0.12 0.00 93 1018.1
20260905000204 53 231 0.9 2.6 0.00 0.12 0.00 93 1018.0
20260904235705 53 242 0.9 2.6 0.00 0.12 0.00 93 1018.0
20260904235204 53 248 2.6 2.6 0.00 0.12 0.00 93 1018.1
20260904234704 53 252 2.6 5.2 0.00 0.12 0.00 93 1018.1
20260904234204 53 231 2.6 2.6 0.00 0.12 0.00 93 1018.1
20260904233704 53 214 3.5 4.3 0.00 0.12 0.00 93 1018.1
20260904233203 53 212 1.7 2.6 0.00 0.12 0.00 93 1018.0
20260904232704 53 239 1.7 5.2 0.00 0.12 0.00 93 1018.1
20260904232204 53 245 1.7 2.6 0.00 0.12 0.00 93 1018.0
20260904231703 53 259 2.6 6.1 0.00 0.12 0.00 93 1017.9
20260904231204 53 242 4.3 7.0 0.00 0.12 0.00 93 1017.8
20260904230703 54 252 4.3 10.4 0.00 0.12 0.00 93 1017.8
20260904230204 54 255 5.2 10.4 0.00 0.12 0.00 93 1017.7
20260904225704 54 268 7.0 11.3 0.00 0.12 0.12 93 1017.7
20260904224704 54 248 5.2 7.8 0.00 0.12 0.12 93 1017.6
20260904223704 54 248 2.6 5.2 0.00 0.12 0.12 93 1017.6
20260904223203 54 256 5.2 12.2 0.00 0.12 0.12 93 1017.5
20260904221704 54 258 7.8 10.4 0.00 0.12 0.12 93 1017.6
20260904221204 53 265 4.3 10.4 0.00 0.12 0.12 93 1017.6
20260904220704 53 251 5.2 8.7 0.00 0.12 0.12 93 1017.6
20260904220204 54 262 5.2 10.4 0.00 0.12 0.12 93 1017.5
20260904215704 54 261 7.8 11.3 0.00 0.12 0.12 93 1017.5
20260904214204 54 245 4.3 7.0 0.00 0.12 0.12 93 1017.3
20260904213704 54 238 4.3 6.1 0.00 0.12 0.12 93 1017.4
20260904212703 54 263 6.1 12.2 0.00 0.20 0.12 93 1017.1
20260904212204 54 252 5.2 10.4 0.00 0.30 0.12 93 1017.1
20260904211704 54 263 6.1 10.4 0.00 0.32 0.12 93 1017.1
20260904210705 54 250 4.3 7.0 0.00 0.35 0.12 93 1017.1
20260904205204 54 258 4.3 7.0 0.00 0.36 0.12 93 1017.0
20260904204204 53 251 2.6 6.1 0.00 0.36 0.12 92 1016.9
20260904203704 53 241 2.6 6.1 0.00 0.36 0.12 92 1016.8
20260904203204 54 245 4.3 6.1 0.00 0.36 0.12 92 1016.8
20260904202204 54 249 4.3 7.8 0.00 0.36 0.12 92 1016.7
20260904201704 54 266 4.3 7.8 0.00 0.36 0.12 92 1016.7
20260904201204 54 257 5.2 7.8 0.00 0.36 0.12 92 1016.6
20260904195704 55 249 4.3 7.8 0.00 0.36 0.12 92 1016.5
20260904195204 55 246 5.2 7.8 0.00 0.36 0.12 92 1016.4
20260904194704 55 252 5.2 10.4 0.00 0.36 0.12 92 1016.2
20260904193704 55 260 6.1 10.4 0.00 0.36 0.12 92 1016.0
20260904192704 55 243 4.3 7.0 0.00 0.36 0.12 92 1016.0
20260904192203 55 252 3.5 6.1 0.00 0.36 0.12 91 1015.9
20260904191204 55 255 5.2 7.8 0.00 0.36 0.12 92 1015.8
20260904190704 55 251 5.2 10.4 0.00 0.36 0.12 92 1015.6
20260904190204 55 251 5.2 10.4 0.00 0.36 0.12 92 1015.7
20260904185703 55 248 6.1 10.4 0.00 0.36 0.12 91 1015.5
20260904185204 55 253 4.3 7.8 0.00 0.36 0.12 91 1015.5
20260904184704 56 255 4.3 10.4 0.00 0.36 0.12 91 1015.4
20260904184204 56 265 6.1 12.2 0.00 0.36 0.12 91 1015.4
20260904183204 56 239 5.2 10.4 0.00 0.37 0.12 91 1015.2
20260904182704 56 258 7.0 10.4 0.00 0.37 0.12 91 1015.3
20260904182204 56 241 7.0 12.2 0.00 0.37 0.12 91 1015.3
20260904181704 56 254 7.8 12.2 0.00 0.37 0.12 91 1015.3
20260904181204 56 261 6.1 13.0 0.00 0.37 0.12 90 1015.3
20260904180204 56 258 6.1 10.4 0.00 0.37 0.12 90 1015.2
20260904175704 56 268 7.0 10.4 0.00 0.37 0.12 90 1015.2
20260904175204 56 271 5.2 13.9 0.00 0.38 0.12 89 1015.2
20260904174704 57 262 8.7 13.9 0.00 0.38 0.12 89 1015.0
20260904174203 56 268 5.2 10.4 0.00 0.38 0.12 88 1015.1
20260904173704 57 276 7.8 17.4 0.00 0.38 0.12 87 1015.0
20260904173205 58 270 9.6 18.2 0.00 0.39 0.12 85 1014.9
20260904172704 58 266 7.8 13.0 0.00 0.39 0.12 85 1014.8
20260904172204 59 258 5.2 14.8 0.00 0.39 0.12 84 1014.6
20260904171704 59 284 6.1 15.6 0.00 0.39 0.12 84 1014.6
20260904171204 59 266 6.1 14.8 0.00 0.39 0.12 84 1014.5
20260904170204 59 262 7.8 13.9 0.00 0.41 0.12 84 1014.4
20260904165704 59 259 8.7 13.0 0.00 0.41 0.12 84 1014.3
20260904165203 59 277 8.7 14.8 0.00 0.42 0.12 84 1014.2
20260904164705 59 279 6.1 13.0 0.00 0.42 0.12 85 1014.1
20260904164203 60 255 7.8 13.0 0.00 0.43 0.12 84 1014.0
20260904163704 60 265 7.0 13.9 0.00 0.43 0.12 84 1014.0
20260904163204 60 254 8.7 17.4 0.00 0.43 0.12 85 1014.0
20260904162704 59 263 6.1 10.4 0.00 0.44 0.12 85 1013.8
20260904162204 59 271 7.0 14.8 0.00 0.45 0.12 84 1013.8
20260904161705 59 264 9.6 17.4 0.00 0.46 0.12 84 1013.7
20260904161204 59 268 11.3 19.1 0.00 0.46 0.12 85 1013.7
20260904160203 60 267 8.7 15.6 0.00 0.48 0.12 84 1013.5
20260904155704 60 265 7.0 14.8 0.00 0.48 0.12 85 1013.6
20260904155204 60 264 8.7 15.6 0.00 0.50 0.12 85 1013.4
20260904154703 59 272 11.3 20.9 0.00 0.50 0.12 86 1013.4
20260904154204 59 264 6.1 11.3 0.00 0.51 0.12 87 1013.4
20260904153704 59 256 7.0 13.9 0.00 0.51 0.12 87 1013.4
20260904152704 59 267 7.0 13.9 0.00 0.51 0.12 87 1013.4
20260904152204 59 262 6.1 14.8 0.00 0.51 0.12 86 1013.4
20260904150704 59 263 12.2 20.9 0.02 0.51 0.12 86 1013.2
20260904150203 60 261 8.7 15.6 0.02 0.51 0.12 87 1013.3
20260904145204 59 276 8.7 17.4 0.02 0.51 0.12 88 1013.3
20260904144704 60 250 7.8 13.9 0.02 0.51 0.12 88 1013.2
20260904144204 59 250 8.7 13.9 0.02 0.51 0.12 89 1013.1
20260904143704 59 266 10.4 17.4 0.02 0.51 0.12 89 1013.1
20260904143204 59 251 9.6 17.4 0.02 0.52 0.12 91 1012.9
20260904142704 58 257 5.2 13.0 0.02 0.52 0.12 90 1013.0
20260904142204 58 253 8.7 15.6 0.02 0.52 0.12 90 1012.9
20260904141704 58 260 8.7 13.9 0.02 0.52 0.12 89 1012.9
20260904141203 58 270 10.4 22.6 0.02 0.53 0.12 88 1012.9
20260904140704 60 259 7.8 13.0 0.00 0.51 0.10 87 1012.7
20260904135704 59 250 11.3 19.1 0.00 0.51 0.10 87 1012.6
20260904134704 58 257 8.7 17.4 0.00 0.51 0.10 88 1012.7
20260904133703 58 271 8.7 17.4 0.00 0.51 0.10 86 1012.6
20260904131703 61 280 10.4 18.2 0.00 0.52 0.10 85 1012.2
20260904131204 60 264 9.6 17.4 0.01 0.52 0.10 85 1012.0
20260904130704 61 272 9.6 17.4 0.02 0.52 0.10 86 1012.1
20260904130204 61 254 8.7 22.6 0.02 0.52 0.10 85 1012.0
20260904125704 61 283 9.6 20.0 0.02 0.52 0.10 85 1012.0
20260904125204 61 269 13.0 20.0 0.02 0.52 0.10 87 1011.8
20260904124703 61 256 12.2 14.8 0.02 0.52 0.10 88 1011.7
20260904122703 59 264 5.2 13.0 0.06 0.53 0.10 91 1011.8
20260904121204 57 260 7.0 17.4 0.07 0.53 0.10 89 1011.7
20260904120704 59 263 7.0 10.4 0.06 0.50 0.08 90 1011.6
20260904120204 58 277 6.1 12.2 0.06 0.50 0.08 91 1011.4
20260904115703 58 267 5.2 11.3 0.06 0.50 0.08 91 1011.4
20260904115204 57 280 5.2 11.3 0.06 0.50 0.08 90 1011.5
20260904114704 57 288 7.8 14.8 0.06 0.50 0.08 90 1011.4
20260904114204 56 279 7.8 17.4 0.07 0.50 0.08 89 1011.5
20260904113704 58 280 8.7 15.6 0.06 0.49 0.06 90 1011.5
20260904113204 58 280 5.2 11.3 0.04 0.47 0.05 89 1011.3
20260904112704 58 273 5.2 10.4 0.04 0.47 0.05 89 1011.2
20260904112204 58 264 5.2 11.3 0.02 0.46 0.03 88 1011.1
20260904111704 58 278 6.1 12.2 0.02 0.46 0.03 86 1011.0
20260904111204 59 296 7.8 15.6 0.02 0.46 0.03 84 1011.1
20260904110704 60 268 7.8 14.8 0.01 0.44 0.02 84 1010.8
20260904110203 61 265 7.8 13.9 0.01 0.44 0.02 85 1010.6
20260904105704 60 269 7.8 14.8 0.01 0.44 0.02 86 1010.7
20260904105204 60 272 7.8 13.0 0.01 0.44 0.02 86 1010.6
20260904104704 60 259 4.3 13.9 0.01 0.44 0.02 83 1010.6
20260904104204 61 263 10.4 22.6 0.00 0.43 0.01 81 1010.5
20260904103703 61 289 7.8 13.9 0.00 0.43 0.01 83 1010.4
20260904103204 60 278 7.8 13.0 0.00 0.43 0.01 83 1010.4
20260904102704 60 265 6.1 13.9 0.00 0.43 0.01 83 1010.4
20260904102204 60 266 7.8 17.4 0.00 0.43 0.01 83 1010.4
20260904101704 60 285 10.4 15.6 0.00 0.43 0.01 83 1010.4
20260904101204 60 262 8.7 15.6 0.00 0.43 0.01 84 1010.3
20260904100704 60 264 7.8 14.8 0.00 0.43 0.01 84 1010.3
20260904100204 60 257 5.2 13.0 0.00 0.43 0.01 85 1010.2
20260904095703 60 276 7.0 12.2 0.00 0.43 0.01 86 1010.1
20260904095204 60 252 7.8 15.6 0.00 0.43 0.01 85 1010.0
20260904094703 60 268 7.8 13.0 0.00 0.43 0.01 86 1009.9
20260904094204 60 243 5.2 11.3 0.00 0.43 0.01 86 1010.0
20260904093704 59 259 8.7 17.4 0.00 0.43 0.01 86 1009.8
20260904092204 59 268 7.0 17.4 0.00 0.43 0.01 89 1009.5
20260904091704 58 272 6.1 14.8 0.00 0.44 0.01 89 1009.5
20260904091203 58 267 7.8 12.2 0.00 0.44 0.01 89 1009.4
20260904090704 58 265 7.8 13.9 0.00 0.45 0.01 90 1009.4
20260904090204 58 277 8.7 13.9 0.00 0.45 0.01 90 1009.3
20260904085704 58 255 6.1 13.9 0.00 0.45 0.01 91 1009.3
20260904084204 57 267 8.7 14.8 0.00 0.45 0.01 91 1009.0
20260904083704 57 268 6.1 15.6 0.00 0.45 0.01 91 1008.9
20260904083204 57 257 10.4 19.1 0.00 0.45 0.01 91 1008.8
20260904082703 57 267 9.6 14.8 0.00 0.45 0.01 91 1008.5
20260904082204 57 251 8.7 15.6 0.00 0.45 0.01 91 1008.5
20260904081703 57 252 10.4 15.6 0.00 0.46 0.01 91 1008.5
20260904081204 57 255 10.4 17.4 0.00 0.47 0.01 91 1008.2
20260904080704 57 249 7.8 13.0 0.00 0.47 0.01 91 1008.2
20260904075704 57 243 8.7 17.4 0.00 0.47 0.01 91 1008.2
20260904075204 57 254 9.6 13.9 0.00 0.47 0.01 91 1008.2
20260904074703 57 254 10.4 17.4 0.00 0.47 0.01 90 1008.1
20260904074204 57 250 11.3 17.4 0.00 0.47 0.01 90 1008.0
20260904073704 57 252 7.8 15.6 0.00 0.47 0.01 90 1007.9
20260904073204 56 253 6.1 13.9 0.00 0.47 0.01 90 1007.8
20260904072704 56 255 6.1 11.3 0.00 0.47 0.01 90 1007.5
20260904071704 55 238 7.8 13.0 0.00 0.47 0.01 90 1007.6
20260904071204 55 250 6.1 12.2 0.00 0.47 0.01 90 1007.5
20260904070704 55 253 8.7 14.8 0.00 0.47 0.01 90 1007.4
20260904070204 55 257 10.4 14.8 0.00 0.47 0.01 90 1007.3
20260904064203 56 257 7.0 13.0 0.00 0.47 0.01 89 1007.2
20260904063704 56 253 8.7 13.9 0.00 0.47 0.01 89 1007.2
20260904063204 56 254 7.8 11.3 0.00 0.47 0.01 89 1007.1
20260904062704 56 245 6.1 13.0 0.00 0.47 0.01 89 1007.1
20260904062204 56 247 5.2 11.3 0.00 0.47 0.01 89 1007.0
20260904061704 55 239 7.8 11.3 0.00 0.47 0.01 89 1007.1
20260904061204 55 233 6.1 10.4 0.00 0.47 0.01 89 1006.9
20260904060703 55 253 7.0 13.0 0.00 0.48 0.01 89 1006.9
20260904055703 55 254 7.0 11.3 0.00 0.48 0.01 89 1007.0
20260904055204 55 239 6.1 12.2 0.00 0.48 0.01 88 1007.0
20260904054704 56 242 10.4 17.4 0.00 0.48 0.01 88 1007.0
20260904054204 56 245 7.8 11.3 0.00 0.48 0.01 88 1006.9
20260904053705 56 254 6.1 10.4 0.00 0.48 0.01 88 1006.6
20260904053204 56 239 5.2 7.8 0.00 0.48 0.01 88 1006.4
20260904052704 56 256 6.1 12.2 0.00 0.48 0.01 88 1006.4
20260904052205 56 256 4.3 11.3 0.00 0.48 0.01 88 1006.4
20260904051204 56 255 6.1 11.3 0.00 0.48 0.01 88 1006.5
20260904050704 56 246 4.3 8.7 0.00 0.48 0.01 88 1006.4
20260904050204 56 263 7.0 10.4 0.00 0.48 0.01 88 1006.4
20260904045703 56 249 6.1 10.4 0.00 0.48 0.01 88 1006.5
20260904045204 56 238 6.1 10.4 0.00 0.48 0.01 89 1006.4
20260904044704 56 241 6.1 10.4 0.00 0.48 0.01 89 1006.5
20260904043704 56 245 7.0 12.2 0.00 0.48 0.01 90 1006.3
20260904043204 56 253 6.1 10.4 0.00 0.48 0.01 90 1006.3
20260904042705 56 252 5.2 10.4 0.00 0.48 0.01 90 1006.2
20260904042203 55 240 5.2 10.4 0.00 0.48 0.01 90 1006.2
20260904041204 56 234 7.8 10.4 0.00 0.48 0.01 90 1006.2
20260904040703 56 252 7.8 11.3 0.00 0.48 0.01 90 1006.2
20260904040204 56 244 6.1 13.0 0.00 0.48 0.01 90 1006.2
20260904035704 56 234 5.2 12.2 0.00 0.48 0.01 90 1006.1
20260904035205 55 249 7.0 11.3 0.00 0.48 0.01 90 1005.9